Погода в Петъял

Россия / Республика Марий Эл     56°05′54″N   48°41′34″E
темп.,
°C
ветер,
м/с
пор.,
м/с
влажн.,
%
обл.,
%
осадки,
мм/ч
давл.,
гПа
погр.,
м
22 апреля, чт
чт2200:00+3ююв71593100 0.1 1020670
03:00+3ю61394100 0.2 1021554
06:00+3ю51293100 0.1 1022422
09:00+6ю6982100 0.1 1022543
12:00+9ю687498 0.0 1022728
15:00+11ю696398 0.1 10221426
18:00+10ю5107627 0.2 1022550
21:00+7ю39895 0.4 1022199
23 апреля, пт
пт2300:00+5ююв34938 0.0 102383
03:00+4ююв22945 0.0 102413
06:00+5юв22915 0.0 102581
09:00+10ююв33712 0.0 1025539
12:00+13ююв235120 0.0 10241516
15:00+15юв444572 0.0 10231901
18:00+12юв476271 0.0 1022268
21:00+8вюв377999 0.1 1022133
24 апреля, сб
сб2400:00+7в3581100 0.0 102082
03:00+7в41086100 0.0 1018246
06:00+6в51089100 0.0 1017434
09:00+8вюв5783100 0.0 10151078
12:00+7в4690100 0.6 10141035
15:00+7в4792100 1.1 1013503
18:00+7вюв4894100 0.1 1011410
21:00+6вюв499485 0.1 1009410
25 апреля, вс
вс2500:00+4вюв41097100 0.0 1007301
03:00+5юв4897100 3.9 1004385
06:00+3зюз61197100 2.1 1005786
09:00+5з7137879 2.6 10061205
12:00+10з8124859 0.1 10082247
15:00+11з8114265 0.1 10102803
18:00+9зюз6105626 0.0 1011590
21:00+6юз4107180 0.1 1013277
26 апреля, пн
пн2600:00+3ююз388896 0.1 1013185
03:00+2юз410855 0.1 1014266
06:00+3юз511785 0.0 1015437
09:00+7зюз69575 0.0 10161354
12:00+10зюз71041100 0.0 10162574
15:00+10юз784595 0.0 10151904
18:00+8юз596378 0.3 1015626
21:00+5ююз368388 0.3 1015105